| time (UTC) | temp F | wind direction | speed knots | gust knots | rain 1hr in | rain 24hr in | rain mn in | humidity % | barometer mb |
| 20260508101731 | 52 | 293 | 3.5 | 9.6 | 0.00 | 0.00 | 0.00 | 29 | 1024.1 |
| 20260508094737 | 52 | 297 | 7.8 | 9.6 | 0.00 | 0.00 | 0.00 | 30 | 1024.1 |
| 20260508091736 | 51 | 276 | 5.2 | 9.6 | 0.00 | 0.00 | 0.00 | 32 | 1024.0 |
| 20260508084727 | 51 | 291 | 1.7 | 11.3 | 0.00 | 0.00 | 0.00 | 32 | 1023.7 |
| 20260508081734 | 50 | 274 | 3.5 | 8.7 | 0.00 | 0.00 | 0.00 | 38 | 1023.6 |
| 20260508074721 | 49 | 274 | 3.5 | 9.6 | 0.00 | 0.00 | 0.00 | 43 | 1023.2 |
| 20260508071736 | 49 | 269 | 0.0 | 8.7 | 0.00 | 0.00 | 0.00 | 49 | 1023.1 |
| 20260508064736 | 48 | 251 | 0.9 | 3.5 | 0.00 | 0.00 | 0.00 | 57 | 1022.7 |
| 20260508061723 | 46 | 283 | 1.7 | 3.5 | 0.00 | 0.00 | 0.00 | 67 | 1022.3 |
| 20260508054726 | 44 | 283 | 0.9 | 5.2 | 0.00 | 0.00 | 0.00 | 78 | 1022.0 |
| 20260508051721 | 42 | 283 | 3.5 | 5.2 | 0.00 | 0.00 | 0.00 | 86 | 1021.6 |
| 20260508044730 | 41 | 281 | 0.0 | 2.6 | 0.00 | 0.00 | 0.00 | 94 | 1021.3 |
| 20260508041737 | 38 | 281 | 0.0 | 0.0 | 0.00 | 0.00 | 0.00 | 95 | 1021.0 |
| 20260508034725 | 35 | 281 | 0.0 | 0.0 | 0.00 | 0.00 | 0.00 | 95 | 1020.6 |
| 20260508031723 | 32 | 281 | 0.0 | 0.0 | 0.00 | 0.00 | 0.00 | 94 | 1020.5 |
| 20260508024733 | 31 | 281 | 0.0 | 0.0 | 0.00 | 0.00 | 0.00 | 94 | 1020.1 |
| 20260508021728 | 29 | 281 | 0.0 | 0.0 | 0.00 | 0.00 | 0.00 | 93 | 1019.8 |
| 20260508014731 | 29 | 281 | 0.0 | 0.0 | 0.00 | 0.00 | 0.00 | 92 | 1019.6 |
| 20260508011722 | 29 | 281 | 0.0 | 0.0 | 0.00 | 0.00 | 0.00 | 92 | 1019.4 |
| 20260508004737 | 29 | 281 | 0.0 | 0.0 | 0.00 | 0.00 | 0.00 | 91 | 1019.2 |
| 20260508001729 | 29 | 281 | 0.0 | 0.0 | 0.00 | 0.00 | 0.00 | 91 | 1018.9 |
| 20260507234725 | 29 | 281 | 0.0 | 0.0 | 0.00 | 0.00 | 0.00 | 91 | 1018.8 |
| 20260507231742 | 30 | 281 | 0.0 | 0.0 | 0.00 | 0.00 | 0.00 | 90 | 1018.4 |
| 20260507224737 | 30 | 281 | 0.0 | 0.0 | 0.00 | 0.00 | 0.00 | 90 | 1018.0 |
| 20260507221735 | 31 | 281 | 0.0 | 0.0 | 0.00 | 0.00 | 0.00 | 89 | 1017.9 |
| 20260507214729 | 32 | 281 | 0.0 | 0.0 | 0.00 | 0.00 | 0.00 | 88 | 1017.6 |
| 20260507211723 | 33 | 281 | 0.0 | 0.0 | 0.00 | 0.00 | 0.00 | 87 | 1017.4 |
| 20260507204733 | 34 | 281 | 0.0 | 0.0 | 0.00 | 0.00 | 0.00 | 86 | 1017.0 |
| 20260507201724 | 35 | 281 | 0.0 | 0.0 | 0.00 | 0.00 | 0.00 | 84 | 1016.7 |
| 20260507194733 | 37 | 281 | 0.0 | 0.0 | 0.00 | 0.00 | 0.00 | 84 | 1016.3 |
| 20260507191725 | 38 | 281 | 0.0 | 0.0 | 0.00 | 0.00 | 0.00 | 82 | 1016.2 |
| 20260507184721 | 39 | 281 | 0.0 | 1.7 | 0.00 | 0.00 | 0.00 | 80 | 1015.9 |
| 20260507181722 | 40 | 281 | 0.0 | 3.5 | 0.00 | 0.00 | 0.00 | 77 | 1015.8 |
| 20260507174721 | 42 | 285 | 2.6 | 6.1 | 0.00 | 0.00 | 0.00 | 74 | 1015.7 |
| 20260507171734 | 42 | 256 | 1.7 | 9.6 | 0.00 | 0.00 | 0.00 | 73 | 1015.4 |
| 20260507164726 | 41 | 285 | 1.7 | 10.4 | 0.00 | 0.00 | 0.00 | 75 | 1015.3 |
| 20260507161723 | 41 | 283 | 4.3 | 10.4 | 0.00 | 0.00 | 0.00 | 73 | 1015.1 |
| 20260507154741 | 41 | 276 | 6.1 | 10.4 | 0.00 | 0.00 | 0.00 | 71 | 1014.8 |
| 20260507151733 | 41 | 311 | 7.8 | 13.9 | 0.00 | 0.00 | 0.00 | 72 | 1014.5 |
| 20260507144731 | 43 | 274 | 5.2 | 13.0 | 0.00 | 0.00 | 0.00 | 65 | 1014.2 |
| 20260507141735 | 43 | 276 | 7.0 | 15.6 | 0.00 | 0.00 | 0.00 | 61 | 1014.0 |
| 20260507134731 | 45 | 296 | 7.0 | 13.0 | 0.00 | 0.00 | 0.00 | 54 | 1013.7 |
| 20260507131728 | 46 | 303 | 3.5 | 8.7 | 0.00 | 0.00 | 0.00 | 55 | 1013.3 |
| 20260507124722 | 48 | 304 | 0.9 | 5.2 | 0.00 | 0.00 | 0.00 | 49 | 1013.2 |
| 20260507121737 | 48 | 341 | 0.0 | 6.1 | 0.00 | 0.00 | 0.00 | 48 | 1013.0 |
| 20260507114719 | 46 | 274 | 3.5 | 10.4 | 0.00 | 0.00 | 0.00 | 64 | 1013.1 |
| 20260507111733 | 46 | 286 | 1.7 | 6.1 | 0.00 | 0.00 | 0.00 | 59 | 1012.7 |
| 20260507104729 | 49 | 169 | 0.9 | 7.0 | 0.00 | 0.00 | 0.00 | 34 | 1012.8 |